Waarnemingen

Advertentie
Mijn weer
Nice, Frankrijk (7690): temperatuur & dauwpunt: 13.04.2019 06:00:00 - 19.04.2019 06:00:00 (CEST)Nice, Frankrijk (7690): temperatuur 5cm: 13.04.2019 06:00:00 - 19.04.2019 06:00:00 (CEST)Nice, Frankrijk (7690): temperatuur -20cm & temperatuur -100cm: 13.04.2019 06:00:00 - 19.04.2019 06:00:00 (CEST)Nice, Frankrijk (7690): windsnelheid & windstoten: 13.04.2019 06:00:00 - 19.04.2019 06:00:00 (CEST)Nice, Frankrijk (7690): windrichting: 13.04.2019 06:00:00 - 19.04.2019 06:00:00 (CEST)Nice, Frankrijk (7690): luchtdruk: 13.04.2019 06:00:00 - 19.04.2019 06:00:00 (CEST)Nice, Frankrijk (7690): zicht: 13.04.2019 06:00:00 - 19.04.2019 06:00:00 (CEST)Nice, Frankrijk (7690): Zonneschijnduur: 13.04.2019 06:00:00 - 19.04.2019 06:00:00 (CEST)Nice, Frankrijk (7690): neerslag: 13.04.2019 06:00:00 - 19.04.2019 06:00:00 (CEST)
Datum & Tijd tt [°C] td [°C] tt 5cm [°C] tt -20cm [°C] tt -100cm [°C] ff [km/u] ff [kn] fx [km/u] fx [kn] dd ppp [hPa] vv [km] sd [min] rr [mm]
19.04.2019 06:00:00 16,3 9,5 15,1 14,8 14,6 32 17 49 26 O 1024,7 30 0 0,0
19.04.2019 05:00:00 17,2 7,5 15,8 14,8 14,7 40 21 56 30 O 1024,4 30 0 0,0
19.04.2019 04:00:00 17,0 8,9 15,5 14,8 14,6 41 22 61 33 O 1024,0 30 0 0,0
19.04.2019 03:00:00 16,5 11,2 14,3 14,8 14,7 29 16 41 22 O 1023,8 30 0 0,0
19.04.2019 02:00:00 16,3 9,9 13,3 14,7 14,6 9 5 19 10 NO 1024,0 30 0 0,0
19.04.2019 01:00:00 15,7 3,5 14,1 14,7 14,6 13 7 16 9 NW 1023,6 30 0 0,0
19.04.2019 00:00:00 16,2 3,3 14,7 14,7 14,6 13 7 19 10 NNW 1023,2 30 0 0,0
18.04.2019 23:00:00 16,9 3,6 14,9 14,7 14,6 14 8 21 12 NO 1023,0 30 0 0,0
18.04.2019 22:00:00 18,1 7,5 16,3 14,7 14,6 19 10 27 14 ONO 1022,7 30 0 0,0
18.04.2019 21:00:00 18,0 8,0 16,5 14,7 14,6 20 11 30 16 O 1022,2 30 0 0,0
18.04.2019 20:00:00 18,3 7,1 17,3 14,7 14,5 26 14 32 18 O 1021,6 30 0 0,0
18.04.2019 19:00:00 18,8 4,5 18,6 14,7 14,6 23 12 37 20 O 1021,5 30 12 0,0
18.04.2019 18:00:00 18,9 7,3 20,4 14,7 14,6 28 15 39 21 ONO 1021,2 30 55 0,0
18.04.2019 17:00:00 18,8 8,4 21,4 14,7 14,6 29 15 40 22 O 1021,3 30 60 0,0
18.04.2019 16:00:00 18,2 8,7 21,9 14,7 14,6 33 18 49 26 O 1021,3 30 60 0,0
18.04.2019 15:00:00 18,4 7,5 22,6 14,6 14,6 36 19 50 27 O 1021,6 30 60 0,0
18.04.2019 14:00:00 18,4 7,5 22,6 14,7 14,6 36 19 46 25 O 1021,8 30 60 0,0
18.04.2019 13:00:00 18,5 8,2 22,7 14,7 14,6 34 19 45 24 O 1022,2 40 60 0,0
18.04.2019 12:00:00 18,1 10,7 21,7 14,7 14,6 29 16 45 25 O 1022,4 40 60 0,0
18.04.2019 11:00:00 17,7 9,6 20,1 14,7 14,6 35 19 46 25 O 1022,3 40 60 0,0
18.04.2019 10:00:00 16,3 10,4 19,9 14,7 14,6 24 13 34 18 O 1022,3 40 60 0,0
18.04.2019 09:00:00 16,5 6,9 13,1 14,6 14,6 7 4 17 9 NO 1021,7 40 56 -
18.04.2019 08:00:00 13,2 5,8 11,7 14,7 14,6 14 8 23 13 NNW 1021,4 40 44 0,0
18.04.2019 07:00:00 12,7 5,1 11,3 14,6 14,5 13 7 20 11 NNW 1021,0 40 0 0,0
18.04.2019 06:00:00 12,7 5,4 9,8 14,6 14,6 10 5 13 7 NNW 1020,8 40 0 0,0
18.04.2019 05:00:00 12,5 6,5 10,6 14,6 14,6 10 6 18 10 NNO 1020,8 40 0 0,0
18.04.2019 04:00:00 13,3 5,4 11,9 14,6 14,5 12 7 21 11 N 1020,9 40 0 0,0
18.04.2019 03:00:00 13,4 5,5 11,7 14,6 14,6 16 9 21 11 NW 1021,3 40 0 0,0
18.04.2019 02:00:00 13,0 5,9 11,4 14,6 14,6 12 6 18 10 NNW 1021,7 40 0 0,0
18.04.2019 01:00:00 12,8 5,9 10,8 14,5 14,6 12 6 16 9 NNW 1022,0 40 0 0,0
18.04.2019 00:00:00 12,9 6,7 11,3 14,5 14,6 10 6 14 7 NNW 1021,8 40 0 0,0
17.04.2019 23:00:00 13,4 7,4 11,5 14,5 14,5 6 3 11 6 NNW 1021,4 40 0 0,0
17.04.2019 22:00:00 14,2 8,8 11,9 14,5 14,6 4 2 10 5 W 1021,1 40 0 0,0
17.04.2019 21:00:00 14,5 10,7 12,7 14,5 14,6 4 2 7 4 ZZW 1020,4 40 0 0,0
17.04.2019 20:00:00 15,1 11,1 14,3 14,5 14,6 6 3 9 5 ZZW 1020,3 40 29 0,0
17.04.2019 19:00:00 15,7 10,0 17,8 14,5 14,6 6 3 9 5 Z 1020,1 40 49 0,0
17.04.2019 18:00:00 16,5 10,6 23,2 14,5 14,6 6 4 12 7 Z 1020,3 40 60 0,0
17.04.2019 17:00:00 16,6 10,9 24,7 14,5 14,6 10 5 13 7 Z 1020,5 40 60 0,0
17.04.2019 16:00:00 16,6 10,7 24,6 14,5 14,5 10 5 13 7 Z 1020,8 40 60 0,0
17.04.2019 15:00:00 16,5 10,6 23,6 14,5 14,5 8 4 10 6 ZZO 1021,1 40 60 0,0
17.04.2019 14:00:00 16,1 10,6 23,2 14,5 14,6 8 5 12 6 ZZO 1021,2 40 60 0,0
17.04.2019 13:00:00 15,9 10,0 22,9 14,5 14,6 11 6 13 7 OZO 1021,3 40 60 0,0
17.04.2019 12:00:00 16,0 10,5 21,4 14,5 14,5 8 4 14 8 ZO 1021,5 40 60 0,0
17.04.2019 11:00:00 15,3 9,2 20,9 14,5 14,5 13 7 15 8 ZZO 1021,5 40 60 0,0
17.04.2019 10:00:00 16,1 6,5 17,5 14,5 14,6 8 5 18 10 N 1021,2 40 60 0,0
17.04.2019 09:00:00 14,1 6,4 13,8 14,5 14,6 11 6 24 13 NNW 1020,9 40 60 0,0
17.04.2019 08:00:00 11,9 5,7 10,0 14,5 14,6 18 10 29 15 NNW 1020,8 40 53 0,0
17.04.2019 07:00:00 11,3 5,6 9,8 14,6 14,6 21 11 29 16 NNW 1020,4 40 0 0,0
17.04.2019 06:00:00 11,0 5,7 9,6 14,5 14,5 15 8 20 11 NNW 1019,9 40 0 0,0
17.04.2019 05:00:00 10,8 6,0 9,6 14,5 14,6 12 7 20 11 N 1020,1 40 0 0,0
17.04.2019 04:00:00 11,5 6,4 10,6 14,5 14,6 14 8 23 12 NNW 1020,3 40 0 0,0
17.04.2019 03:00:00 11,7 6,8 10,5 14,5 14,6 19 11 24 13 NNW 1020,4 40 0 0,0
17.04.2019 02:00:00 12,0 7,1 9,5 14,5 14,6 9 5 16 9 N 1020,6 40 0 0,0
17.04.2019 01:00:00 11,4 7,7 9,7 14,5 14,6 11 6 14 8 NW 1020,9 40 0 0,0
17.04.2019 00:00:00 11,7 8,5 10,0 14,5 14,6 7 4 12 6 NW 1020,8 40 0 0,0
16.04.2019 23:00:00 12,7 8,4 10,9 14,5 14,5 6 3 10 6 NNW 1020,7 40 0 0,0
16.04.2019 22:00:00 13,2 9,3 11,3 14,5 14,5 5 3 14 8 W 1020,4 40 0 0,0
16.04.2019 21:00:00 14,3 9,1 13,6 14,5 14,6 11 6 22 12 WZW 1020,1 40 0 0,0
16.04.2019 20:00:00 14,6 9,6 14,3 14,5 14,5 17 9 23 12 ZW 1019,8 40 0 0,0
16.04.2019 19:00:00 14,8 9,2 14,8 14,5 14,5 16 9 22 12 ZW 1019,7 40 0 0,0
16.04.2019 18:00:00 15,2 9,5 15,7 14,5 14,5 18 10 23 13 ZW 1019,7 40 0 0,0
16.04.2019 17:00:00 15,9 9,3 17,4 14,5 14,5 16 9 21 11 ZZW 1019,7 40 0 0,0
16.04.2019 16:00:00 16,4 9,3 20,1 14,5 14,5 16 8 20 11 ZZW 1019,6 40 4 0,0
16.04.2019 15:00:00 16,3 10,6 20,6 14,5 14,5 16 9 20 11 Z 1019,9 40 31 0,0
16.04.2019 14:00:00 17,8 8,1 20,1 14,5 14,5 5 3 14 8 WZW 1019,9 40 6 0,0
16.04.2019 13:00:00 16,0 8,7 19,0 14,5 14,5 7 4 12 7 Z 1020,2 40 0 0,0
16.04.2019 12:00:00 15,3 8,8 18,7 14,5 14,5 7 4 12 6 Z 1020,4 40 0 0,0
16.04.2019 11:00:00 15,5 8,2 19,6 14,5 14,5 5 3 8 4 Z 1020,1 40 3 0,0
16.04.2019 10:00:00 15,6 6,6 14,9 14,4 14,5 6 3 13 7 NNW 1019,5 40 13 0,0
16.04.2019 09:00:00 14,0 6,1 13,0 14,5 14,5 8 4 14 8 NNW 1019,4 40 0 0,0
16.04.2019 08:00:00 13,2 5,6 12,2 14,4 14,5 10 6 21 11 NNW 1019,2 40 0 0,0
16.04.2019 07:00:00 13,0 5,2 12,1 14,4 14,5 15 8 20 11 NNW 1018,8 40 0 0,0
16.04.2019 06:00:00 13,0 4,9 12,1 14,4 14,5 11 6 20 11 NNW 1018,4 40 0 0,0
16.04.2019 05:00:00 13,1 5,0 12,2 14,4 14,5 12 7 16 9 NNW 1018,6 40 0 0,0
16.04.2019 04:00:00 12,9 5,3 12,0 14,4 14,5 9 5 17 9 NNW 1018,7 40 0 0,0
16.04.2019 03:00:00 12,8 5,2 11,8 14,4 14,6 11 6 18 10 NNW 1018,6 40 0 0,0
16.04.2019 02:00:00 12,8 5,2 11,8 14,4 14,5 13 7 20 11 NNW 1019,0 40 0 0,0
16.04.2019 01:00:00 12,8 5,5 11,8 14,4 14,5 14 8 19 10 NNW 1019,2 40 0 0,0
16.04.2019 00:00:00 13,0 5,6 11,9 14,4 14,6 13 7 16 9 NNW 1019,4 40 0 0,0
15.04.2019 23:00:00 13,3 6,2 12,2 14,4 14,5 9 5 15 8 N 1019,6 40 0 0,0
15.04.2019 22:00:00 14,1 6,7 12,3 14,4 14,6 6 3 14 8 NNW 1019,7 40 0 0,0
15.04.2019 21:00:00 14,8 6,6 12,9 14,4 14,5 5 3 7 4 W 1019,3 40 0 0,0
15.04.2019 20:00:00 15,7 5,0 13,5 14,4 14,5 2 1 9 5 NNW 1018,6 40 0 0,0
15.04.2019 19:00:00 16,1 6,8 16,5 14,4 14,5 8 4 13 7 W 1018,7 60 23 0,0
15.04.2019 18:00:00 16,9 7,5 19,9 14,4 14,5 9 5 15 8 WZW 1018,7 40 58 0,0
15.04.2019 17:00:00 16,8 7,7 22,8 14,4 14,5 7 4 14 8 ZZW 1018,6 40 60 0,0
15.04.2019 16:00:00 17,0 7,3 25,3 14,4 14,5 6 4 12 6 ZZW 1018,7 40 60 0,0
15.04.2019 15:00:00 16,9 6,7 26,0 14,4 14,5 7 4 11 6 Z 1018,9 40 60 0,0
15.04.2019 14:00:00 16,9 5,8 25,6 14,4 14,5 7 4 10 5 Z 1019,1 40 60 0,0
15.04.2019 13:00:00 16,5 7,7 24,6 14,4 14,5 6 3 11 6 ZZO 1019,1 40 60 0,0
15.04.2019 12:00:00 15,2 7,7 23,5 14,4 14,5 9 5 13 7 Z 1019,2 40 60 0,0
15.04.2019 11:00:00 14,8 5,6 18,1 14,4 14,5 8 5 16 9 ZZW 1019,0 40 60 0,0
15.04.2019 10:00:00 13,3 4,2 14,3 14,5 14,5 13 7 26 14 NW 1018,7 40 60 0,0
15.04.2019 09:00:00 11,0 4,4 10,9 14,5 14,5 18 10 26 14 NNW 1018,6 40 60 0,0
15.04.2019 08:00:00 9,3 3,9 7,5 14,5 14,5 16 9 36 19 NNW 1018,0 40 50 0,0
15.04.2019 07:00:00 8,2 4,2 7,2 14,5 14,5 20 11 27 15 NNW 1017,1 40 0 0,0
15.04.2019 06:00:00 8,2 4,4 7,2 14,4 14,5 16 8 21 12 NNW 1016,9 20 0 0,0
15.04.2019 05:00:00 8,4 4,8 7,4 14,4 14,4 13 7 21 11 NNW 1016,8 20 0 0,0
15.04.2019 04:00:00 8,7 5,3 7,8 14,5 14,5 16 9 23 13 NNW 1016,7 20 0 0,0
15.04.2019 03:00:00 8,9 5,8 7,8 14,4 14,5 13 7 22 12 NNW 1016,4 20 0 0,0
15.04.2019 02:00:00 9,1 6,4 7,8 14,4 14,5 15 8 22 12 NNW 1016,1 20 0 0,0
15.04.2019 01:00:00 9,4 7,0 7,8 14,4 14,5 13 7 18 10 NNW 1015,7 20 0 0,0
15.04.2019 00:00:00 9,8 7,2 8,7 14,4 14,5 11 6 19 11 NNW 1015,0 20 0 0,0
14.04.2019 23:00:00 10,2 7,8 9,4 14,4 14,5 14 7 18 10 NNW 1014,5 20 0 0,0
14.04.2019 22:00:00 11,1 8,3 9,8 14,4 14,4 9 5 18 10 NNW 1014,2 20 0 0,0
14.04.2019 21:00:00 12,4 8,1 11,3 14,4 14,5 13 7 26 14 WZW 1013,4 20 0 0,0
14.04.2019 20:00:00 12,9 8,2 12,3 14,4 14,4 19 10 27 15 ZW 1012,3 20 21 0,0
14.04.2019 19:00:00 13,2 8,3 13,4 14,4 14,5 14 7 35 19 WZW 1011,8 20 30 0,0
14.04.2019 18:00:00 13,7 9,3 11,6 14,4 14,4 26 14 45 24 WZW 1011,0 20 41 0,2
14.04.2019 17:00:00 12,5 9,1 10,7 14,4 14,4 16 9 27 15 W 1011,1 15 0 1,4
14.04.2019 16:00:00 12,0 7,9 10,6 14,4 14,4 3 2 33 18 WZW 1011,4 15 0 2,4
14.04.2019 15:00:00 13,5 8,3 12,0 14,4 14,4 27 14 37 20 ZW 1010,8 20 0 0,2
14.04.2019 14:00:00 15,8 7,3 18,0 14,4 14,5 18 10 26 14 ZW 1010,2 20 40 0,0
14.04.2019 13:00:00 14,6 6,9 17,3 14,4 14,4 12 6 17 9 Z 1010,0 20 10 0,0
14.04.2019 12:00:00 14,6 7,2 14,6 14,4 14,4 15 8 34 18 O 1009,7 30 17 0,0
14.04.2019 11:00:00 13,5 8,3 14,7 14,4 14,4 27 14 35 19 O 1009,3 40 31 0,0
14.04.2019 10:00:00 13,9 8,9 12,3 14,4 14,4 16 9 22 12 O 1009,0 40 43 0,0
14.04.2019 09:00:00 11,3 6,4 9,1 14,4 14,5 13 7 19 10 NW 1008,9 40 7 0,0
14.04.2019 08:00:00 9,6 5,4 8,8 14,3 14,4 17 9 23 12 NNW 1008,5 40 0 0,0
14.04.2019 07:00:00 9,8 6,1 8,4 14,4 14,4 11 6 19 11 NNW 1008,3 25 0 0,0
14.04.2019 06:00:00 9,9 7,0 8,9 14,3 14,4 15 8 21 12 NNW 1008,2 25 0 0,0
14.04.2019 05:00:00 10,1 8,0 9,2 14,3 14,5 14 7 16 9 NNW 1008,8 20 0 0,0
14.04.2019 04:00:00 10,6 8,5 9,5 14,3 14,5 9 5 14 8 NNW 1009,3 20 0 0,0
14.04.2019 03:00:00 11,1 9,2 10,1 14,3 14,4 7 4 13 7 NNW 1009,9 20 0 0,0
14.04.2019 02:00:00 11,5 9,7 10,6 14,3 14,5 10 5 15 8 NNW 1010,7 20 0 0,0
14.04.2019 01:00:00 12,2 10,3 10,8 14,3 14,4 7 4 11 6 NNW 1011,5 20 0 0,0
14.04.2019 00:00:00 13,3 10,5 11,7 14,3 14,4 7 4 10 6 NNO 1012,0 20 0 0,0
13.04.2019 23:00:00 14,1 11,3 12,6 14,3 14,4 7 4 11 6 O 1012,1 20 0 0,0
13.04.2019 22:00:00 14,3 11,3 13,2 14,3 14,5 7 4 14 7 O 1012,4 20 0 0,0
13.04.2019 21:00:00 14,6 11,9 14,0 14,3 14,4 12 7 15 8 O 1012,2 20 0 0,0
13.04.2019 20:00:00 14,8 11,9 14,7 14,3 14,4 10 6 13 7 OZO 1011,9 30 11 0,0
13.04.2019 19:00:00 15,3 12,1 16,3 14,3 14,4 9 5 15 8 OZO 1012,1 30 11 0,0
13.04.2019 18:00:00 15,5 11,3 16,6 14,2 14,4 13 7 16 9 OZO 1012,0 30 8 0,0
13.04.2019 17:00:00 16,2 11,1 19,4 14,2 14,4 10 5 14 8 O 1012,2 30 49 0,0
13.04.2019 16:00:00 16,4 11,1 17,9 14,3 14,4 9 5 13 7 ZO 1012,5 40 47 0,0
13.04.2019 15:00:00 16,8 10,6 24,2 14,3 14,4 10 6 14 7 ZZO 1012,9 40 60 0,0
13.04.2019 14:00:00 16,6 10,7 20,4 14,3 14,4 9 5 14 7 Z 1013,0 40 39 0,0
13.04.2019 13:00:00 16,6 10,4 21,9 14,3 14,4 11 6 13 7 ZZO 1013,4 40 53 0,0
13.04.2019 12:00:00 16,6 9,8 22,3 14,3 14,4 9 5 12 7 ZZO 1013,6 40 54 0,0
13.04.2019 11:00:00 16,9 8,6 21,1 14,3 14,4 5 3 15 8 ZZO 1013,5 40 60 0,0
13.04.2019 10:00:00 15,5 7,0 16,2 14,3 14,4 10 5 21 12 NNW 1013,4 40 60 0,0
13.04.2019 09:00:00 13,0 6,3 12,8 14,3 14,4 17 9 27 15 NNW 1013,1 40 60 0,0
13.04.2019 08:00:00 11,2 6,1 10,2 14,3 14,4 19 10 25 14 NNW 1012,6 40 39 0,0
13.04.2019 07:00:00 10,9 6,2 9,7 14,3 14,4 13 7 21 11 NNW 1012,2 40 0 0,0
13.04.2019 06:00:00 10,8 6,2 9,8 14,3 14,4 14 7 20 11 NNW 1012,0 30 0 0,0

tt = temperatuur
td = dauwpunt
tt 5cm = temperatuur 5cm
tt -20cm = temperatuur -20cm
tt -100cm = temperatuur -100cm
ff = windsnelheid
fx = windstoten
dd = windrichting
ppp = luchtdruk
vv = zicht
sd = Zonneschijnduur
rr = neerslag

Weerstations in de omgeving